Regional Weather Roundup
Issued by NWS Cleveland, OH

Home | Current Version | Previous Version | Graphics & Text | Print | Product List | Glossary On
Versions: 1 2 3 4 5 6 7 8 9 10 11 12 13 14 15 16 17 18 19 20 21 22 23 24 25 26 27 28 29 30 31 32 33 34 35 36 37 38 39 40 41 42 43 44 45 46 47 48 49 50
000
ASUS41 KCLE 271310
RWRCLE
OHIO REGIONAL WEATHER ROUNDUP
NATIONAL WEATHER SERVICE CLEVELAND, OH
800 AM EST SAT DEC 27 2014

NOTE: "FAIR" INDICATES FEW OR NO CLOUDS BELOW 12,000 FEET WITH NO
SIGNIFICANT WEATHER AND/OR OBSTRUCTIONS TO VISIBILITY.

OHZ001>008-015>018-024>027-034-035-043-044-271400-
   NORTHWEST OHIO

CITY           SKY/WX    TMP DP  RH WIND       PRES   REMARKS
DEFIANCE       LGT RAIN  45  39  79 S9        30.10S
FINDLAY        CLOUDY    46  36  68 S13       30.12S
TOLEDO EXPRESS CLOUDY    45  38  76 S9        30.10R
TOLEDO EXEC    CLOUDY    46  38  73 S13       30.12R
LIMA           CLOUDY    46  34  62 S10       30.13S
$$

OHZ009>014-019>023-028>033-038-089-271400-
   NORTHEAST OHIO

CITY           SKY/WX    TMP DP  RH WIND       PRES   REMARKS
CLE-HOPKINS    MOCLDY    43  35  73 S10       30.18S
CLE-LAKEFRONT  CLOUDY    45  34  65 SE12      30.13S
CUY CO. ARPT   CLOUDY    46  37  71 S12       30.17R
LORAIN-ELYRIA  MOCLDY    41  35  79 SW9       30.16S
ASHTABULA      CLEAR     37  32  82 S6        30.17S
AKRON-CANTON   MOCLDY    41  33  73 S7        30.19R
WOOSTER        MOCLDY    40  33  76 S6        30.16F
MANSFIELD      CLOUDY    44  35  70 S8        30.17R
YOUNGSTOWN     MOCLDY    38  31  76 S7        30.18R
$$

OHZ042-051>053-060>062-070>072-077>081-271400-
  SOUTHWEST OHIO

CITY           SKY/WX    TMP DP  RH WIND       PRES   REMARKS
CINC-COVINGTON LGT RAIN  43  35  73 S6        30.21R
CINC-LUNKEN    LGT RAIN  37  37 100 CALM      30.24R
HAMILTON       CLOUDY    45  35  68 VRB3      30.21S
DAYTON         CLOUDY    45  35  68 SW10      30.18S
WRIGHT-PAT AFB CLOUDY    42  36  78 S6        30.18S
DAYTON GENERAL CLOUDY    43  34  70 S9        30.18S
WILMINGTON     MOCLDY    41  33  73 S8        30.19S
$$

OHZ036-037-039>041-045>050-054>059-063>069-073>076-082>088-271400-
  CENTRAL AND SOUTHEAST OHIO

CITY           SKY/WX    TMP DP  RH WIND       PRES   REMARKS
COLUMBUS       CLOUDY    41  31  67 CALM      30.20R
OSU AIRPORT    CLOUDY    41  33  73 S5        30.19R
BOLTON FIELD   CLOUDY    41  34  75 S5        30.20R
RICKENBACK AFB CLOUDY    41  33  73 S6        30.21R
NEWARK         PTCLDY    35  32  88 CALM      30.20S
MARION         CLOUDY    42  34  73 S8        30.17R
LANCASTER      CLOUDY    38  32  79 S5        30.21R
ZANESVILLE     CLEAR     32  29  88 CALM      30.22R
NEW PHILLY     CLOUDY    39  32  76 E6        30.23R
$$


USA.gov is the U.S. government's official web portal to all federal, state and local government web resources and services.